| time (UTC) | temp C | wind direction | speed KPH | gust KPH | rain 1hr cm | rain 24hr cm | rain mn cm | humidity % | barometer mb |
| 20260831071518 | 12 | 140 | 12.9 | 14.5 | 0.00 | 0.00 | 0.00 | 79 | 1029.8 |
| 20260831070516 | 11 | 124 | 4.8 | 6.4 | 0.00 | 0.00 | 0.00 | 81 | 1030.3 |
| 20260831065518 | 12 | 109 | 3.2 | 4.8 | 0.00 | 0.00 | 0.00 | 83 | 1030.5 |
| 20260831064519 | 12 | 67 | 6.4 | 8.0 | 0.00 | 0.00 | 0.00 | 83 | 1030.7 |
| 20260831063539 | 12 | 67 | 9.7 | 11.3 | 0.00 | 0.00 | 0.00 | 83 | 1030.9 |
| 20260831062519 | 12 | 51 | 9.7 | 11.3 | 0.00 | 0.00 | 0.00 | 82 | 1031.0 |
| 20260831061517 | 12 | 37 | 9.7 | 11.3 | 0.00 | 0.00 | 0.00 | 81 | 1031.0 |
| 20260831060538 | 12 | 21 | 9.7 | 12.9 | 0.00 | 0.00 | 0.00 | 78 | 1031.0 |
| 20260831055538 | 12 | 2 | 9.7 | 11.3 | 0.00 | 0.00 | 0.00 | 80 | 1031.2 |
| 20260831054518 | 12 | 1 | 4.8 | 6.4 | 0.00 | 0.00 | 0.00 | 81 | 1030.9 |
| 20260831053619 | 12 | 336 | 4.8 | 8.0 | 0.00 | 0.00 | 0.00 | 77 | 1030.4 |
| 20260831052518 | 12 | 288 | 6.4 | 8.0 | 0.00 | 0.00 | 0.00 | 80 | 1030.2 |
| 20260831051519 | 12 | 242 | 6.4 | 8.0 | 0.00 | 0.00 | 0.00 | 80 | 1030.0 |
| 20260831050519 | 12 | 205 | 4.8 | 4.8 | 0.00 | 0.00 | 0.00 | 78 | 1030.2 |
| 20260831045519 | 13 | 217 | 1.6 | 3.2 | 0.00 | 0.00 | 0.00 | 76 | 1030.0 |
| 20260831044519 | 14 | 56 | 8.0 | 11.3 | 0.00 | 0.00 | 0.00 | 68 | 1029.9 |
| 20260831043558 | 13 | 47 | 11.3 | 17.7 | 0.00 | 0.00 | 0.00 | 68 | 1029.9 |
| 20260831042520 | 12 | 32 | 9.7 | 14.5 | 0.00 | 0.00 | 0.00 | 76 | 1029.9 |
| 20260831041701 | 12 | 22 | 12.9 | 17.7 | 0.00 | 0.00 | 0.00 | 80 | 1029.9 |
| 20260831040519 | 12 | 3 | 17.7 | 29.0 | 0.00 | 0.00 | 0.00 | 79 | 1029.9 |
| 20260831035519 | 13 | 358 | 14.5 | 20.9 | 0.00 | 0.00 | 0.00 | 75 | 1029.7 |
| 20260831034520 | 13 | 333 | 9.7 | 14.5 | 0.00 | 0.00 | 0.00 | 73 | 1029.5 |
| 20260831033559 | 13 | 355 | 9.7 | 16.1 | 0.00 | 0.00 | 0.00 | 69 | 1029.4 |
| 20260831032521 | 13 | 331 | 6.4 | 11.3 | 0.00 | 0.00 | 0.00 | 71 | 1029.2 |
| 20260831031516 | 15 | 347 | 4.8 | 9.7 | 0.00 | 0.00 | 0.00 | 64 | 1029.0 |
| 20260831030521 | 15 | 22 | 6.4 | 11.3 | 0.00 | 0.00 | 0.00 | 62 | 1028.7 |
| 20260831025521 | 15 | 29 | 8.0 | 12.9 | 0.00 | 0.00 | 0.00 | 61 | 1028.5 |
| 20260831024541 | 15 | 31 | 9.7 | 14.5 | 0.00 | 0.00 | 0.00 | 61 | 1028.2 |
| 20260831023517 | 15 | 31 | 9.7 | 14.5 | 0.00 | 0.00 | 0.00 | 62 | 1028.2 |
| 20260831022518 | 16 | 26 | 9.7 | 14.5 | 0.00 | 0.00 | 0.00 | 61 | 1028.0 |
| 20260831021518 | 16 | 341 | 6.4 | 11.3 | 0.00 | 0.00 | 0.00 | 59 | 1027.9 |
| 20260831020518 | 15 | 8 | 8.0 | 12.9 | 0.00 | 0.00 | 0.00 | 59 | 1027.8 |
| 20260831015522 | 16 | 49 | 4.8 | 6.4 | 0.00 | 0.00 | 0.00 | 61 | 1027.6 |
| 20260831014522 | 16 | 52 | 1.6 | 4.8 | 0.00 | 0.00 | 0.00 | 58 | 1027.5 |
| 20260831013523 | 17 | 28 | 3.2 | 4.8 | 0.00 | 0.00 | 0.00 | 56 | 1027.4 |
| 20260831012523 | 18 | 358 | 3.2 | 6.4 | 0.00 | 0.00 | 0.00 | 52 | 1027.1 |
| 20260831011523 | 19 | 323 | 4.8 | 8.0 | 0.00 | 0.00 | 0.00 | 50 | 1027.0 |
| 20260831010524 | 20 | 9 | 3.2 | 4.8 | 0.00 | 0.00 | 0.00 | 51 | 1026.8 |
| 20260831005523 | 20 | 70 | 4.8 | 6.4 | 0.00 | 0.00 | 0.00 | 50 | 1026.8 |
| 20260831004519 | 21 | 67 | 4.8 | 8.0 | 0.00 | 0.00 | 0.00 | 47 | 1026.8 |
| 20260831003520 | 21 | 57 | 8.0 | 11.3 | 0.00 | 0.00 | 0.00 | 44 | 1026.8 |
| 20260831002520 | 21 | 11 | 8.0 | 12.9 | 0.00 | 0.00 | 0.00 | 42 | 1026.8 |
| 20260831001540 | 22 | 24 | 8.0 | 12.9 | 0.00 | 0.00 | 0.00 | 41 | 1026.9 |
| 20260831000541 | 22 | 345 | 12.9 | 16.1 | 0.00 | 0.00 | 0.00 | 40 | 1026.7 |
| 20260830235517 | 22 | 11 | 12.9 | 19.3 | 0.00 | 0.00 | 0.00 | 40 | 1026.7 |
| 20260830234520 | 22 | 318 | 9.7 | 14.5 | 0.00 | 0.00 | 0.00 | 41 | 1026.8 |
| 20260830233521 | 22 | 240 | 9.7 | 14.5 | 0.00 | 0.00 | 0.00 | 32 | 1026.7 |
| 20260830232518 | 23 | 225 | 11.3 | 16.1 | 0.00 | 0.00 | 0.00 | 31 | 1026.5 |
| 20260830231521 | 23 | 239 | 11.3 | 16.1 | 0.00 | 0.00 | 0.00 | 31 | 1026.5 |
| 20260830230559 | 23 | 243 | 11.3 | 16.1 | 0.00 | 0.00 | 0.00 | 34 | 1026.6 |
| 20260830225541 | 23 | 270 | 8.0 | 11.3 | 0.00 | 0.00 | 0.00 | 32 | 1026.6 |
| 20260830224521 | 23 | 269 | 9.7 | 16.1 | 0.00 | 0.00 | 0.00 | 31 | 1026.6 |
| 20260830223522 | 23 | 266 | 6.4 | 14.5 | 0.00 | 0.00 | 0.00 | 30 | 1026.7 |
| 20260830222519 | 23 | 224 | 9.7 | 20.9 | 0.00 | 0.00 | 0.00 | 32 | 1026.6 |
| 20260830221516 | 23 | 250 | 9.7 | 19.3 | 0.00 | 0.00 | 0.00 | 32 | 1026.6 |
| 20260830220536 | 23 | 250 | 6.4 | 16.1 | 0.00 | 0.00 | 0.00 | 30 | 1026.7 |
| 20260830215517 | 23 | 286 | 9.7 | 19.3 | 0.00 | 0.00 | 0.00 | 30 | 1026.7 |
| 20260830214516 | 23 | 270 | 8.0 | 16.1 | 0.00 | 0.00 | 0.00 | 30 | 1026.7 |
| 20260830213517 | 24 | 290 | 11.3 | 17.7 | 0.00 | 0.00 | 0.00 | 31 | 1026.8 |
| 20260830212518 | 23 | 262 | 12.9 | 22.5 | 0.00 | 0.00 | 0.00 | 33 | 1026.8 |
| 20260830211517 | 23 | 237 | 9.7 | 20.9 | 0.00 | 0.03 | 0.00 | 33 | 1026.7 |
| 20260830210517 | 23 | 230 | 12.9 | 20.9 | 0.00 | 0.03 | 0.00 | 34 | 1026.8 |
| 20260830205518 | 23 | 240 | 14.5 | 29.0 | 0.00 | 0.03 | 0.00 | 34 | 1026.7 |
| 20260830204518 | 22 | 241 | 16.1 | 32.2 | 0.00 | 0.03 | 0.00 | 34 | 1026.7 |
| 20260830203518 | 22 | 239 | 14.5 | 24.1 | 0.00 | 0.03 | 0.00 | 35 | 1026.8 |
| 20260830202518 | 22 | 255 | 12.9 | 20.9 | 0.00 | 0.03 | 0.00 | 35 | 1026.9 |
| 20260830201518 | 22 | 270 | 14.5 | 25.7 | 0.00 | 0.03 | 0.00 | 35 | 1026.9 |
| 20260830200518 | 22 | 259 | 11.3 | 19.3 | 0.00 | 0.03 | 0.00 | 34 | 1027.0 |
| 20260830195519 | 22 | 286 | 6.4 | 12.9 | 0.00 | 0.03 | 0.00 | 37 | 1027.1 |
| 20260830194519 | 22 | 286 | 9.7 | 14.5 | 0.00 | 0.03 | 0.00 | 37 | 1027.2 |
| 20260830193519 | 22 | 324 | 6.4 | 14.5 | 0.00 | 0.03 | 0.00 | 36 | 1027.3 |
| 20260830192519 | 22 | 283 | 9.7 | 16.1 | 0.00 | 0.03 | 0.00 | 36 | 1027.4 |
| 20260830191559 | 23 | 259 | 9.7 | 14.5 | 0.00 | 0.03 | 0.00 | 38 | 1027.5 |
| 20260830190600 | 22 | 248 | 12.9 | 22.5 | 0.00 | 0.03 | 0.00 | 40 | 1027.6 |
| 20260830185537 | 22 | 239 | 9.7 | 17.7 | 0.00 | 0.03 | 0.00 | 41 | 1027.7 |
| 20260830184517 | 22 | 214 | 12.9 | 20.9 | 0.00 | 0.03 | 0.00 | 41 | 1027.8 |
| 20260830183520 | 22 | 248 | 8.0 | 16.1 | 0.00 | 0.03 | 0.00 | 40 | 1028.0 |
| 20260830182520 | 21 | 225 | 6.4 | 14.5 | 0.00 | 0.03 | 0.00 | 42 | 1028.1 |
| 20260830181517 | 21 | 164 | 12.9 | 22.5 | 0.00 | 0.03 | 0.00 | 45 | 1028.3 |
| 20260830180518 | 20 | 180 | 12.9 | 19.3 | 0.00 | 0.03 | 0.00 | 47 | 1028.4 |
| 20260830175518 | 20 | 202 | 11.3 | 19.3 | 0.00 | 0.03 | 0.00 | 46 | 1028.5 |
| 20260830174518 | 20 | 183 | 12.9 | 20.9 | 0.00 | 0.03 | 0.00 | 48 | 1028.6 |
| 20260830173519 | 20 | 219 | 14.5 | 22.5 | 0.00 | 0.03 | 0.00 | 46 | 1028.7 |
| 20260830172519 | 20 | 193 | 16.1 | 20.9 | 0.00 | 0.03 | 0.00 | 46 | 1028.7 |
| 20260830171519 | 20 | 190 | 12.9 | 22.5 | 0.00 | 0.03 | 0.00 | 47 | 1028.8 |
| 20260830170516 | 18 | 186 | 12.9 | 17.7 | 0.00 | 0.03 | 0.00 | 51 | 1028.9 |
| 20260830165516 | 18 | 194 | 12.9 | 17.7 | 0.00 | 0.03 | 0.00 | 53 | 1028.7 |
| 20260830164522 | 18 | 199 | 12.9 | 14.5 | 0.00 | 0.03 | 0.00 | 52 | 1028.8 |
| 20260830163522 | 18 | 203 | 11.3 | 14.5 | 0.00 | 0.03 | 0.00 | 53 | 1028.6 |
| 20260830162517 | 17 | 212 | 9.7 | 14.5 | 0.00 | 0.03 | 0.00 | 53 | 1028.7 |
| 20260830161517 | 17 | 219 | 6.4 | 11.3 | 0.00 | 0.03 | 0.00 | 56 | 1028.6 |
| 20260830160517 | 16 | 201 | 9.7 | 14.5 | 0.00 | 0.03 | 0.00 | 60 | 1028.5 |
| 20260830155517 | 16 | 192 | 9.7 | 12.9 | 0.00 | 0.03 | 0.00 | 59 | 1028.5 |
| 20260830154558 | 16 | 180 | 9.7 | 14.5 | 0.00 | 0.03 | 0.00 | 60 | 1028.5 |
| 20260830153517 | 16 | 180 | 9.7 | 12.9 | 0.00 | 0.03 | 0.00 | 61 | 1028.4 |
| 20260830152518 | 17 | 183 | 9.7 | 16.1 | 0.00 | 0.03 | 0.00 | 56 | 1028.4 |
| 20260830151518 | 16 | 190 | 3.2 | 8.0 | 0.00 | 0.03 | 0.00 | 53 | 1028.4 |
| 20260830150518 | 16 | 160 | 6.4 | 9.7 | 0.00 | 0.03 | 0.00 | 57 | 1028.5 |
| 20260830145518 | 17 | 164 | 9.7 | 11.3 | 0.00 | 0.03 | 0.00 | 56 | 1028.3 |
| 20260830144558 | 17 | 178 | 1.6 | 6.4 | 0.00 | 0.03 | 0.00 | 49 | 1028.4 |
| 20260830143519 | 16 | 179 | 8.0 | 11.3 | 0.00 | 0.03 | 0.00 | 52 | 1028.4 |
| 20260830142519 | 15 | 152 | 8.0 | 11.3 | 0.00 | 0.03 | 0.00 | 58 | 1028.5 |
| 20260830141519 | 15 | 146 | 9.7 | 14.5 | 0.00 | 0.03 | 0.00 | 65 | 1028.5 |
| 20260830140539 | 15 | 150 | 8.0 | 11.3 | 0.00 | 0.03 | 0.00 | 63 | 1028.6 |
| 20260830135519 | 15 | 152 | 8.0 | 12.9 | 0.00 | 0.03 | 0.00 | 62 | 1028.6 |
| 20260830134520 | 15 | 163 | 9.7 | 14.5 | 0.00 | 0.03 | 0.00 | 62 | 1028.6 |
| 20260830133517 | 15 | 161 | 12.9 | 17.7 | 0.00 | 0.03 | 0.00 | 60 | 1028.5 |